Location: Ferchesar
(52.6477°N, 12.4298°E)
Time: 09:48:45
(UTC+01:00)

Tiros 1 despin weight - Pass Details

Date: 10 December 2021
Orbit: 592 x 641 km, 48.2° (Epoch: 19 January)

Event Time Altitude Azimuth Distance (km) Brightness Sun altitude
Rises 16:18:22 0° 275° (W) 2,831 ? -3.6°
Reaches altitude 10° 16:21:09 10° 258° (WSW) 1,923 ? -4.0°
Maximum altitude 16:24:17 19° 212° (SSW) 1,407 ? -4.4°
Drops below altitude 10° 16:27:26 10° 166° (SSE) 1,917 ? -4.8°
Sets 16:30:13 0° 149° (SSE) 2,818 ? -5.1°
